• MPC Preparation (Info)

  • MPEC 2016-F07 : 2016 ED158

    The following Minor Planet Electronic Circular may be linked-to from your own Web pages, but must not otherwise be redistributed electronically.

    A form allowing access to any MPEC is at the bottom of this page.


    Read MPEC 2016-F06 Read MPEC 2016-F08


    M.P.E.C. 2016-F07                                Issued 2016 Mar. 16, 16:47 UT
    
         The Minor Planet Electronic Circulars contain information on unusual
             minor planets and routine data on comets.  They are published
        on behalf of Division F of the International Astronomical Union by the
              Minor Planet Center, Smithsonian Astrophysical Observatory,
                              Cambridge, MA 02138, U.S.A.
    
                 Prepared using the Tamkin Foundation Computer Network
    
                                  MPC@CFA.HARVARD.EDU
                URL https://www.minorplanetcenter.net/    ISSN 1523-6714
    
                                      2016 ED158
    
    Observations:
         K16EF8D* C2016 03 13.42533 12 07 56.230-04 39 00.24         21.3 wLEF007F51
         K16EF8D  C2016 03 13.44037 12 07 55.105-04 39 24.59         21.1 wLEF007F51
         K16EF8D  C2016 03 13.45544 12 07 53.986-04 39 48.92         21.3 wLEF007F51
         K16EF8D  C2016 03 13.47047 12 07 52.872-04 40 13.19         21.4 wLEF007F51
         K16EF8D KC2016 03 14.35330 12 06 54.70 -05 04 49.0                oEF007291
         K16EF8D KC2016 03 14.35750 12 06 54.44 -05 04 56.2                oEF007291
         K16EF8D KC2016 03 14.36170 12 06 54.07 -05 05 03.8                oEF007291
         K16EF8D  C2016 03 15.27164 12 05 50.12 -05 31 55.9          20.7 VoEF007691
         K16EF8D  C2016 03 15.27506 12 05 49.82 -05 32 02.2          21.2 VoEF007691
         K16EF8D  C2016 03 15.27848 12 05 49.51 -05 32 09.5          20.6 VoEF007691
         K16EF8D  C2016 03 16.32449 12 04 27.39 -06 05 15.9          21.1 VoEF007691
         K16EF8D  C2016 03 16.32675 12 04 27.14 -06 05 21.2          20.5 VoEF007691
         K16EF8D  C2016 03 16.32900 12 04 26.89 -06 05 25.2          21.2 VoEF007691
    
    Observer details:
    291 LPL/Spacewatch II.  Observer A. F. Tubbiolo.  1.8-m f/2.7 reflector + CCD.
    691 Steward Observatory, Kitt Peak.  Observers A. F. Tubbiolo, A. F. Tubbiolo
        A. F. Tubbiolo.  0.9-m f/3 reflector + CCD.
    F51 Pan-STARRS 1, Haleakala.  Observers B. Gibson, T. Goggia, N. Primak,
        A. Schultz, M. Willman.  Measurers K. Chambers, S. Chastel, L. Denneau,
        H. Flewelling, M. Huber, E. Lilly, E. Magnier, R. Wainscoat, C. Waters,
        R. Weryk.  1.8-m Ritchey-Chretien + CCD.
    
    Orbital elements:
    2016 ED158                                               Earth MOID = 0.0606 AU
    Epoch 2016 Jan. 13.0 TT = JDT 2457400.5                 MPC
    M 327.82198              (2000.0)            P               Q
    n   0.24905810     Peri.  272.02447     -0.14218520     +0.98953526
    a   2.5018942      Node   349.70311     -0.84475126     -0.13424064
    e   0.6803314      Incl.    7.89829     -0.51592506     -0.05290947
    P   3.96           H   22.6           G   0.15           U   8
    Residuals in seconds of arc
    160313 F51  0.0   0.0     160314 291  0.3+  0.2+    160316 691  0.6+  0.4+
    160313 F51  0.1-  0.0     160314 291  0.2-  0.2-    160316 691  0.0   0.5-
    160313 F51  0.0   0.0     160315 691  0.2+  0.4+    160316 691  0.6-  0.0
    160313 F51  0.2+  0.0     160315 691  0.1+  0.3+
    160314 291  0.8-  0.2+    160315 691  0.2-  0.7-
    
    Ephemeris:
    2016 ED158               a,e,i = 2.50, 0.68, 8                   q = 0.7998
    Date    TT    R. A. (2000) Decl.     Delta      r     Elong.  Phase     V
    2016 02 15    12 13 26.9 +02 01 18   0.6543  1.5610   143.1    22.3    23.7
    ...
    2016 03 01    12 15 03.2 -00 40 53   0.4453  1.4112   156.9    16.0    22.5
    ...
    2016 03 09    12 11 42.0 -02 55 01   0.3467  1.3305   164.7    11.3    21.6
    ...
    2016 03 15    12 06 09.4 -05 23 24   0.2788  1.2700   170.1     7.8    20.9
    2016 03 16    12 04 53.5 -05 54 22   0.2680  1.2600   170.7     7.3    20.8
    2016 03 17    12 03 30.4 -06 27 39   0.2573  1.2499   171.2     7.0    20.7
    ...
    2016 03 23    11 51 53.7 -10 53 29   0.1963  1.1901   169.2     9.0    20.0
    ...
    2016 03 31    11 18 32.8 -22 28 49   0.1247  1.1118   153.3    23.8    19.4
    ...
    2016 04 15    03 51 47.7 -51 54 54   0.08419 0.9755    68.5   106.9    21.2
    
    A. U. Tomatic                (C) Copyright 2016 MPC           M.P.E.C. 2016-F07
    

    Read MPEC 2016-F06 Read MPEC 2016-F08


    MPEC number:

    Enter an MPEC number in one of the following forms:

    • 1997-B01 (the full form)
    • J97B01 (the packed version of the full form)
    • B01 (the abbreviated form)